This demonstration page uses our WeatherBlox Daily Observations layout. Learn more.

Left ArrowRight Arrow

39.08367, -84.50855

Hourly Observations for August 12, 2020

Temp ( °F °C ) Dew Point ( °F °C ) Humidity (%) Winds ( mph kmh ) Pressure ( in mb ) Visibility ( mi km ) Precip ( " mm )
12:53 am 00:53 Clear with Mist and Fog 70 21.1 69 20.6 97 97 N N/A 30.01 1016 3 5 N/A
1:53 am 01:53 Clear with Mist and Fog 69 20.6 69 20.6 100 100 N N/A 30.01 1016 5 8 N/A
2:02 am 02:02 Clear with Mist and Fog 69 20.6 68 20 96 96 N N/A 30.02 1017 2 2 N/A
2:11 am 02:11 Clear with Mist and Fog 69 20.6 68 20 96 96 N N/A 30.02 1017 1 1 N/A
2:19 am 02:19 Clear with Mist and Fog 69 20.6 68 20 96 96 N N/A 30.02 1017 2 3 N/A
2:30 am 02:30 Clear with Mist and Fog 69 20.6 68 20 96 96 N N/A 30.02 1017 4 6 N/A
2:53 am 02:53 Clear with Mist and Fog 68 20 67 19.4 96 96 N N/A 30.02 1017 6 10 N/A
3:16 am 03:16 Clear with Mist and Fog 69 20.6 68 20 96 96 N N/A 30.02 1017 2 3 N/A
3:38 am 03:38 Mostly Cloudy with Mist and Fog 69 20.6 68 20 96 96 N N/A 30.02 1017 1 2 N/A
3:41 am 03:41 Mostly Clear with Mist and Fog 70 21.1 68 20 93 93 N N/A 30.02 1016 3 4 N/A
3:48 am 03:48 Partly Cloudy with Mist and Fog 70 21 68 20 94 94 N N/A 30.02 1016 5 8 N/A
3:53 am 03:53 Mostly Cloudy with Mist and Fog 68 20 67 19.4 96 96 N N/A 30.02 1017 3 5 N/A
4:03 am 04:03 Mostly Cloudy with Mist and Fog 68 20 67 19.4 96 96 N N/A 30.02 1017 1 2 N/A
4:10 am 04:10 Mostly Cloudy with Mist and Fog 69 20.6 67 19.4 93 93 N N/A 30.02 1017 3 5 N/A
4:20 am 04:20 Mostly Cloudy with Mist and Fog 69 20.6 67 19.4 93 93 N N/A 30.02 1017 2 3 N/A
4:38 am 04:38 Cloudy with Fog 68 20 68 20 100 100 N N/A 30.02 1017 1 1 N/A
4:49 am 04:49 Cloudy with Mist and Fog 70 21 68 20 94 94 N N/A 30.03 1017 1 2 N/A
4:53 am 04:53 Cloudy with Mist and Fog 69 20.6 68 20 96 96 N N/A 30.02 1017 3 5 N/A
4:59 am 04:59 Cloudy with Mist and Fog 69 20.6 69 20.6 100 100 N N/A 30.03 1017 2 3 N/A
5:09 am 05:09 Mostly Cloudy with Fog 69 20.6 69 20.6 100 100 N N/A 30.03 1017 0 0 N/A
5:53 am 05:53 Mostly Cloudy with Fog 69 20.6 68 20 96 96 N N/A 30.04 1017 1 1 N/A
6:12 am 06:12 Cloudy with Mist and Fog 68 20 68 20 100 100 N N/A 30.04 1017 1 2 N/A
6:26 am 06:26 Cloudy with Mist and Fog 68 20 67 19.4 96 96 N N/A 30.04 1017 1 1 N/A
6:36 am 06:36 Cloudy with Fog 68 20 67 19.4 96 96 N N/A 30.04 1017 0 0 N/A
6:53 am 06:53 Mostly Cloudy with Fog 68 20 67 19.4 96 96 N N/A 30.04 1017 N/A N/A
7:24 am 07:24 Cloudy with Fog 69 20.6 68 20 96 96 ENE 3 6 30.06 1018 1 1 N/A
7:31 am 07:31 Cloudy with Mist and Fog 69 20.6 68 20 96 96 ENE 3 6 30.06 1018 1 2 N/A
7:34 am 07:34 Cloudy with Mist and Fog 69 20.6 68 20 96 96 N N/A 30.06 1018 3 5 N/A
7:53 am 07:53 Mostly Cloudy with Mist and Fog 69 20.6 69 20.6 100 100 NNE 3 6 30.06 1018 5 8 N/A
8:53 am 08:53 Sunny 73 22.8 70 21.1 90 90 ENE 3 6 30.07 1018 8 13 N/A
9:53 am 09:53 Sunny 77 25 70 21.1 79 79 ENE 3 6 30.06 1018 10 16 N/A
10:53 am 10:53 Sunny 81 27.2 71 21.7 72 72 NE 5 7 30.06 1018 10 16 N/A
11:53 am 11:53 Partly Cloudy 82 27.8 71 21.7 69 69 NE 3 6 30.06 1018 10 16 N/A
12:53 pm 12:53 Sunny 84 28.9 71 21.7 65 65 VRB 3 6 30.06 1018 10 16 N/A
1:53 pm 13:53 Partly Cloudy 84 28.9 70 21.1 63 63 NNE 3 6 30.05 1018 10 16 N/A
2:53 pm 14:53 Partly Cloudy 85 29.4 71 21.7 63 63 N 6 9 30.04 1017 10 16 N/A
3:53 pm 15:53 Partly Cloudy 86 30 71 21.7 61 61 VRB 3 6 30.02 1017 10 16 N/A
4:53 pm 16:53 Partly Cloudy 85 29.4 69 20.6 59 59 N N/A 30.01 1016 10 16 N/A
5:53 pm 17:53 Partly Cloudy 86 30 69 20.6 57 57 ENE 3 6 30.01 1016 10 16 N/A
6:53 pm 18:53 Sunny 83 28.3 72 22.2 70 70 N N/A 30.01 1016 10 16 N/A
7:53 pm 19:53 Partly Cloudy 82 27.8 72 22.2 72 72 ENE 3 6 30.01 1016 10 16 N/A
8:53 pm 20:53 Partly Cloudy 76 24.4 72 22.2 88 88 N N/A 30.02 1017 9 14 N/A
9:53 pm 21:53 Partly Cloudy 74 23.3 72 22.2 94 94 N N/A 30.04 1017 8 13 N/A
10:53 pm 22:53 Clear 74 23.3 71 21.7 91 91 N N/A 30.04 1017 7 11 N/A
11:53 pm 23:53 Clear with Mist and Fog 73 22.8 71 21.7 94 94 NNE 3 6 30.04 1017 6 10 N/A

Powered by AerisWeather